Lafayette, LA

6:31 PM CDT on April 25, 2017 (GMT -0500)
Lafayette Regional

Weather History for KLFT - December, 2011

Change the Weather History Date:

Monday, December 26, 2011

  Actual Average Record
Temperature  
Mean Temperature 51 °F 53 °F  
Max Temperature 57 °F 63 °F 81 °F (2015)
Min Temperature 45 °F 43 °F 16 °F (1983)
Degree Days  
Heating Degree Days 14 13  
Month to date heating degree days 280 290  
Since 1 July heating degree days 509 489  
Growing Degree Days 2 (Base 50)    
Moisture  
Dew Point 52 °F    
Average Humidity 93    
Maximum Humidity 100    
Minimum Humidity 86    
Precipitation  
Precipitation 0.70 in 0.19 in 4.87 in (1982)
Month to date precipitation 1.81 4.63  
Year to date precipitation 35.78 59.55  
Snow  
Snow 0.00 in 0.00 in 0.00 in ()
Month to date snowfall 0.0 0.0  
Since 1 July snowfall 0.0 0.0  
Snow Depth 0.00 in    
Sea Level Pressure  
Sea Level Pressure 30.12 in    
Wind  
Wind Speed 5 mph (West)    
Max Wind Speed 20 mph    
Max Gust Speed 25 mph    
Visibility 5 miles    
Events Rain    
T = Trace of Precipitation, MM = Missing Value Source: NWS Daily Summary

Daily Weather History Graph

Daily Weather History Graph

Search for Another Location

Airport or City:

Trip Planner

Search our weather history database for the weather conditions in past years. The results will help you decide how hot, cold, wet, or windy it might be!

Date:

Astronomy

Dec. 26, 2011 Rise Set
Actual Time 7:02 AM CST 5:14 PM CST
Civil Twilight 6:35 AM CST 5:41 PM CST
Nautical Twilight 6:05 AM CST 6:11 PM CST
Astronomical Twilight 5:36 AM CST 6:40 PM CST
Moon 8:29 AM CST (12/26) 7:34 PM CST (12/26)
Length of Visible Light 11h 05m
Length of Day
10h 12m
Waxing Crescent, 5% of the Moon is Illuminated
Dec 26
Waxing Crescent
Jan 1
First Quarter
Jan 9
Full
Jan 16
Last Quarter
Jan 23
New

Hourly Weather History & Observations

Time (CST) Temp. Windchill Dew Point Humidity Pressure Visibility Wind Dir Wind Speed Gust Speed Precip Events Conditions
12:24 AM 51.8 °F - 51.8 °F 100% 30.20 in 1.8 mi North 4.6 mph - 0.01 in   Overcast
12:53 AM 52.0 °F - 51.1 °F 97% 30.19 in 1.5 mi NNE 3.5 mph - 0.01 in   Overcast
1:53 AM 52.0 °F - 51.1 °F 97% 30.18 in 1.2 mi ENE 3.5 mph - 0.00 in Rain Light Rain
2:13 AM 51.8 °F - 51.8 °F 100% 30.17 in 3.0 mi Calm Calm - 0.01 in Rain Light Rain
2:53 AM 52.0 °F - 52.0 °F 100% 30.16 in 3.0 mi NNE 3.5 mph - 0.01 in   Overcast
3:07 AM 51.8 °F - 51.8 °F 100% 30.17 in 2.5 mi NW 3.5 mph - N/A   Overcast
3:22 AM 51.8 °F - 51.8 °F 100% 30.17 in 1.5 mi WNW 3.5 mph - N/A   Overcast
3:53 AM 52.0 °F - 52.0 °F 100% 30.16 in 1.2 mi Calm Calm - N/A   Overcast
4:44 AM 53.6 °F - 51.8 °F 94% 30.15 in 2.0 mi North 3.5 mph - 0.02 in Rain Light Rain
4:53 AM 53.1 °F - 52.0 °F 96% 30.14 in 3.0 mi North 3.5 mph - 0.02 in Rain Light Rain
5:09 AM 51.8 °F - 51.8 °F 100% 30.15 in 1.8 mi Calm Calm - 0.07 in Rain Heavy Rain
5:20 AM 51.8 °F - 51.8 °F 100% 30.15 in 3.0 mi NW 3.5 mph - 0.11 in Rain Light Rain
5:49 AM 53.6 °F - 51.8 °F 94% 30.15 in 4.0 mi Calm Calm - 0.11 in   Overcast
5:53 AM 53.6 °F - 51.8 °F 94% 30.15 in 4.0 mi North 3.5 mph - N/A   Overcast
6:01 AM 53.6 °F - 51.8 °F 94% 30.15 in 2.5 mi NNE 3.5 mph - N/A   Overcast
6:25 AM 53.6 °F - 51.8 °F 94% 30.15 in 3.0 mi NNW 3.5 mph - N/A   Overcast
6:53 AM 53.1 °F - 52.0 °F 96% 30.16 in 3.0 mi Calm Calm - N/A   Overcast
7:03 AM 53.6 °F - 51.8 °F 94% 30.16 in 2.0 mi Calm Calm - N/A   Overcast
7:12 AM 53.6 °F - 51.8 °F 94% 30.17 in 1.5 mi Calm Calm - N/A   Overcast
7:53 AM 53.1 °F - 53.1 °F 100% 30.17 in 1.0 mi Calm Calm - 0.01 in   Overcast
8:46 AM 53.6 °F - 53.6 °F 100% 30.17 in 1.0 mi Calm Calm - 0.02 in Rain Light Rain
8:53 AM 54.0 °F - 53.1 °F 97% 30.17 in 1.0 mi Calm Calm - 0.02 in   Overcast
9:00 AM 53.6 °F - 53.6 °F 100% 30.17 in 6.0 mi Calm Calm - N/A   Overcast
9:07 AM 53.6 °F - 53.6 °F 100% 30.17 in 2.0 mi Calm Calm - N/A   Overcast
9:34 AM 55.4 °F - 53.6 °F 94% 30.18 in 2.5 mi Calm Calm - N/A   Overcast
9:53 AM 55.0 °F - 54.0 °F 96% 30.18 in 2.5 mi Calm Calm - 0.00 in Rain Light Rain
10:00 AM 55.4 °F - 53.6 °F 94% 30.18 in 3.0 mi West 3.5 mph - 0.00 in Rain Light Rain
10:05 AM 55.4 °F - 53.6 °F 94% 30.18 in 2.0 mi Calm Calm - 0.00 in Rain Light Rain
10:12 AM 55.4 °F - 55.4 °F 100% 30.18 in 1.8 mi WSW 3.5 mph - 0.01 in Rain Light Rain
10:22 AM 55.4 °F - 55.4 °F 100% 30.17 in 1.8 mi SW 4.6 mph - 0.01 in   Overcast
10:31 AM 55.4 °F - 55.4 °F 100% 30.16 in 2.0 mi SW 3.5 mph - 0.01 in Rain Light Rain
10:48 AM 55.4 °F - 55.4 °F 100% 30.15 in 4.0 mi South 3.5 mph - 0.01 in   Overcast
10:53 AM 55.9 °F - 55.0 °F 97% 30.15 in 7.0 mi Calm Calm - 0.01 in   Overcast
11:28 AM 57.2 °F - 55.4 °F 94% 30.13 in 10.0 mi South 4.6 mph - N/A   Overcast
11:42 AM 57.2 °F - 55.4 °F 94% 30.12 in 2.5 mi SSW 5.8 mph - 0.03 in Rain Light Rain
11:50 AM 57.2 °F - 55.4 °F 94% 30.11 in 4.0 mi SSW 5.8 mph - 0.03 in Rain Light Rain
11:53 AM 55.9 °F - 55.0 °F 97% 30.11 in 4.0 mi SSW 5.8 mph - 0.03 in Rain Light Rain
12:14 PM 55.4 °F - 55.4 °F 100% 30.10 in 2.0 mi SW 5.8 mph - 0.00 in Rain Light Rain
12:40 PM 55.4 °F - 55.4 °F 100% 30.07 in 6.0 mi WSW 5.8 mph - 0.05 in Rain Light Rain
12:53 PM 55.9 °F - 54.0 °F 93% 30.06 in 8.0 mi WSW 3.5 mph - 0.05 in   Overcast
1:46 PM 53.6 °F - 53.6 °F 100% 30.04 in 1.8 mi WSW 8.1 mph - 0.06 in Rain Heavy Rain
1:53 PM 54.0 °F - 53.1 °F 97% 30.05 in 1.8 mi WSW 9.2 mph - 0.07 in Rain Rain
2:16 PM 53.6 °F - 53.6 °F 100% 30.02 in 0.8 mi SW 3.5 mph - 0.19 in Rain Heavy Rain
2:25 PM 53.6 °F - 51.8 °F 94% 30.02 in 1.0 mi SW 4.6 mph - 0.23 in Rain Heavy Rain
2:46 PM 53.6 °F - 51.8 °F 94% 30.04 in 3.0 mi WSW 11.5 mph - 0.28 in Rain Light Rain
2:53 PM 53.1 °F - 52.0 °F 96% 30.03 in 3.0 mi SW 8.1 mph - 0.28 in Rain Light Rain
3:45 PM 53.6 °F - 51.8 °F 94% 30.05 in 2.5 mi West 11.5 mph - 0.05 in Rain Light Rain
3:53 PM 53.1 °F - 51.1 °F 93% 30.04 in 9.0 mi West 8.1 mph - 0.06 in Rain Light Rain
4:53 PM 53.1 °F - 51.1 °F 93% 30.04 in 10.0 mi WSW 9.2 mph - 0.00 in   Overcast
5:53 PM 53.1 °F - 51.1 °F 93% 30.04 in 8.0 mi West 8.1 mph - N/A   Overcast
6:53 PM 52.0 °F - 50.0 °F 93% 30.06 in 7.0 mi West 6.9 mph - 0.00 in Rain Light Rain
7:19 PM 51.8 °F - 50.0 °F 94% 30.05 in 6.0 mi WSW 5.8 mph - 0.02 in Rain Light Rain
7:49 PM 51.8 °F - 48.2 °F 88% 30.06 in 9.0 mi West 11.5 mph - 0.02 in   Overcast
7:53 PM 51.1 °F - 48.9 °F 92% 30.06 in 9.0 mi West 10.4 mph - 0.02 in   Overcast
8:11 PM 51.8 °F - 48.2 °F 88% 30.07 in 10.0 mi West 11.5 mph 18.4 mph N/A   Overcast
8:35 PM 51.8 °F - 48.2 °F 88% 30.08 in 10.0 mi WNW 11.5 mph - N/A   Overcast
8:53 PM 50.0 °F - 46.9 °F 89% 30.09 in 10.0 mi WNW 12.7 mph 21.9 mph N/A   Overcast
9:04 PM 50.0 °F - 46.4 °F 87% 30.09 in 10.0 mi WNW 15.0 mph 21.9 mph N/A   Overcast
9:29 PM 48.2 °F - 46.4 °F 93% 30.11 in 10.0 mi WNW 12.7 mph 20.7 mph 0.00 in Rain Light Rain
9:37 PM 48.2 °F - 44.6 °F 87% 30.11 in 10.0 mi WNW 18.4 mph 24.2 mph 0.00 in   Overcast
9:50 PM 48.2 °F - 44.6 °F 87% 30.12 in 10.0 mi WNW 13.8 mph - 0.00 in   Scattered Clouds
9:53 PM 48.0 °F - 44.1 °F 86% 30.12 in 10.0 mi West 10.4 mph - 0.00 in   Scattered Clouds
10:53 PM 46.9 °F - 43.0 °F 86% 30.12 in 10.0 mi West 9.2 mph - N/A   Clear
11:53 PM 45.0 °F 40.6 °F 42.1 °F 90% 30.12 in 10.0 mi West 8.1 mph - N/A   Clear